This demonstration page uses our WeatherBlox Daily Observations layout. Learn more.

Left ArrowRight Arrow

41.12389, -100.76542

Hourly Observations for July 8, 2018

Temp ( °F °C ) Dew Point ( °F °C ) Humidity (%) Winds ( mph kmh ) Pressure ( in mb ) Visibility ( mi km ) Precip ( " mm )
12:53 am 00:53 Clear 78 25.6 67 19.4 69 69 SSW 13 20 30.04 1017 10 16 0.00 0.00
1:53 am 01:53 Clear 76 24.4 67 19.4 74 74 S 14 22 30.03 1017 10 16 0.00 0.00
2:53 am 02:53 Clear 75 23.9 67 19.4 76 76 S 13 20 30.03 1017 10 16 0.00 0.00
3:53 am 03:53 Clear 73 22.8 67 19.4 81 81 SSW 8 13 30.04 1017 10 16 0.00 0.00
4:53 am 04:53 Clear 72 22.2 67 19.4 84 84 S 9 15 30.04 1017 10 16 0.00 0.00
5:53 am 05:53 Clear 71 21.7 67 19.4 87 87 S 8 13 30.04 1017 10 16 0.00 0.00
6:53 am 06:53 Sunny 71 21.7 67 19.4 87 87 S 10 17 30.04 1017 10 16 0.00 0.00
7:53 am 07:53 Sunny 74 23.3 67 19.4 79 79 S 14 22 30.04 1017 10 16 0.00 0.00
8:53 am 08:53 Sunny 77 25 68 20 74 74 SSW 14 22 30.05 1018 10 16 0.00 0.00
9:53 am 09:53 Sunny 81 27.2 69 20.6 67 67 SSW 17 28 30.04 1017 10 16 0.00 0.00
10:53 am 10:53 Sunny 84 28.9 69 20.6 61 61 SSW 14 22 30.03 1017 10 16 0.00 0.00
11:53 am 11:53 Sunny 88 31.1 70 21.1 55 55 SSW 16 26 30.02 1017 10 16 0.00 0.00
12:53 pm 12:53 Sunny 91 32.8 69 20.6 49 49 SSW 16 26 30.02 1017 10 16 0.00 0.00
1:53 pm 13:53 Sunny 92 33.3 70 21.1 49 49 SSW 14 22 30.01 1016 10 16 0.00 0.00
2:53 pm 14:53 Sunny 93 33.9 66 18.9 41 41 S 16 26 29.99 1016 10 16 0.00 0.00
3:53 pm 15:53 Sunny 94 34.4 66 18.9 40 40 SSW 16 26 29.99 1016 10 16 0.00 0.00
4:53 pm 16:53 Sunny 94 34.4 65 18.3 38 38 SSW 15 24 29.99 1016 10 16 0.00 0.00
5:53 pm 17:53 Sunny 93 33.9 65 18.3 40 40 SSW 15 24 29.98 1015 10 16 0.00 0.00
6:53 pm 18:53 Sunny 92 33.3 64 17.8 40 40 S 10 17 29.98 1015 10 16 0.00 0.00
7:53 pm 19:53 Sunny 88 31.1 65 18.3 46 46 S 9 15 29.99 1016 10 16 0.00 0.00
8:53 pm 20:53 Sunny 83 28.3 63 17.2 51 51 SSE 7 11 30.01 1016 10 16 0.00 0.00
9:53 pm 21:53 Clear 79 26.1 64 17.8 60 60 SSE 8 13 30.02 1017 10 16 0.00 0.00
10:53 pm 22:53 Clear 77 25 64 17.8 64 64 SSE 9 15 30.05 1018 10 16 0.00 0.00
11:53 pm 23:53 Clear 76 24.4 61 16.1 60 60 SSE 5 7 30.06 1018 10 16 0.00 0.00

Powered by AerisWeather